Regional Weather Roundup
Issued by NWS

Home | Current Version | Previous Version | Text Only | Print | Product List | Glossary On
Versions: 1 2 3 4 5 6 7 8 9 10 11 12 13 14 15 16 17 18 19 20 21 22 23 24 25 26 27 28 29 30 31 32 33 34 35 36 37 38 39 40 41 42 43 44 45 46 47 48 49 50
000
ASCA42 TJSJ 270911
RWRPR
PUERTO RICO/U.S. VIRGIN ISLANDS HOURLY WEATHER ROUNDUP
NATIONAL WEATHER SERVICE SAN JUAN PR
500 AM AST THU NOV 27 2014

PRZ001-004-271000-
PUERTO RICO

CITY           SKY/WX    TMP DP  RH WIND       PRES   REMARKS
SAN JUAN LMM   PTCLDY    75  72  88 SE5       29.97S
PONCE          PTCLDY    73  70  88 NE6       29.94S
AGUADILLA      MOCLDY    73  72  94 E6        29.98S THUNDER
CEIBA          CLEAR     79  64  61 E8        29.99S
$$

PRZ006-007-271000-
U.S. VIRGIN ISLANDS

CITY           SKY/WX    TMP DP  RH WIND       PRES   REMARKS
$$

HOURLY WEATHER ROUNDUP FOR THE NEWS MEDIA

CITY           SKY/WX    TMP DP  RH WIND       PRES   REMARKS
MIAMI          CLEAR     57  45  64 N9        30.19S
ORLANDO        CLEAR     50  43  77 NW3       30.25R
NEW YORK       CLOUDY    37  30  75 NW13      29.93R WCI  29
NEWARK         CLOUDY    36  33  89 W6        29.93R WCI  31
CHICAGO        CLOUDY    24  17  74 NW16      30.22R WCI  11
HARTFORD       FLURRIES  33  32  96 NW7G17    29.78R WCI  27
BOSTON         FLURRIES  34  32  92 NW13      29.78R WCI  25
DALLAS         CLEAR     43  28  55 NW5       30.47R
PHILADELPHIA   CLOUDY    37  31  78 W9        29.99R WCI  30


USA.gov is the U.S. government's official web portal to all federal, state and local government web resources and services.